TimeAKDT,TemperatureF,Dew PointF,Humidity,Sea Level PressureIn,VisibilityMPH,Wind Direction,Wind SpeedMPH,Gust SpeedMPH,PrecipitationIn,Events,Conditions,WindDirDegrees,DateUTC
12:53 AM,24.1,3.9,42,29.98,10.0,ENE,5.8,-,N/A,,Clear,60,2013-03-13 08:53:00
1:53 AM,24.1,3.9,42,29.98,10.0,North,-9999.0,-,N/A,,Clear,0,2013-03-13 09:53:00
2:53 AM,23.0,3.9,44,29.97,10.0,North,-9999.0,-,N/A,,Clear,0,2013-03-13 10:53:00
3:53 AM,19.9,6.1,55,29.97,10.0,North,-9999.0,-,N/A,,Clear,0,2013-03-13 11:53:00
4:53 AM,19.0,5.0,54,29.96,10.0,North,-9999.0,-,N/A,,Clear,0,2013-03-13 12:53:00
5:53 AM,19.9,3.9,50,29.94,10.0,North,-9999.0,-,N/A,,Clear,0,2013-03-13 13:53:00
6:53 AM,17.1,6.1,62,29.94,10.0,North,5.8,-,N/A,,Clear,360,2013-03-13 14:53:00
7:53 AM,18.0,5.0,57,29.93,10.0,North,-9999.0,-,N/A,,Clear,0,2013-03-13 15:53:00
8:53 AM,17.1,6.1,62,29.92,10.0,North,-9999.0,-,N/A,,Clear,0,2013-03-13 16:53:00
9:53 AM,21.0,3.9,48,29.91,10.0,North,-9999.0,-,N/A,,Clear,0,2013-03-13 17:53:00
10:53 AM,25.0,6.1,45,29.90,10.0,NE,6.9,-,N/A,,Clear,40,2013-03-13 18:53:00
11:53 AM,25.0,5.0,43,29.89,10.0,North,-9999.0,-,N/A,,Clear,0,2013-03-13 19:53:00
12:53 PM,27.0,6.1,41,29.88,10.0,ENE,4.6,-,N/A,,Clear,70,2013-03-13 20:53:00
1:53 PM,27.0,6.1,41,29.86,10.0,ESE,5.8,-,N/A,,Clear,110,2013-03-13 21:53:00
2:53 PM,28.0,8.1,43,29.84,10.0,East,6.9,-,N/A,,Scattered Clouds,100,2013-03-13 22:53:00
3:53 PM,28.9,10.0,45,29.81,10.0,East,5.8,-,N/A,,Clear,90,2013-03-13 23:53:00
4:53 PM,30.0,10.0,43,29.79,10.0,East,5.8,-,N/A,,Clear,90,2013-03-14 00:53:00
5:53 PM,30.0,6.1,36,29.78,10.0,ENE,8.1,-,N/A,,Clear,60,2013-03-14 01:53:00
6:53 PM,30.9,6.1,35,29.77,10.0,ENE,5.8,-,N/A,,Clear,60,2013-03-14 02:53:00
7:53 PM,28.0,5.0,38,29.76,10.0,NNE,3.5,-,N/A,,Clear,30,2013-03-14 03:53:00
8:53 PM,26.1,6.1,43,29.76,10.0,NNW,3.5,-,N/A,,Clear,340,2013-03-14 04:53:00
9:53 PM,26.1,6.1,43,29.76,10.0,East,3.5,-,N/A,,Overcast,80,2013-03-14 05:53:00
10:53 PM,26.1,7.0,44,29.75,10.0,NNE,4.6,-,N/A,,Overcast,30,2013-03-14 06:53:00
11:53 PM,27.0,7.0,43,29.75,10.0,NE,8.1,-,N/A,,Overcast,50,2013-03-14 07:53:00